Skip Page Navigation
NASA JPL Caltech
NASA Logo - Jet Propulsion Laboratory + View the NASA Portal
+ Center for Near-Earth Object Studies
JPL Home Earth Solar System Stars & Galaxies Technology
JPL Solar System Dynamics
BODIES ORBITS EPHEMERIDES TOOLS PHYSICAL DATA DISCOVERY FAQ SITE MAP
IMPORTANT: The SSD Announcement email list is now available. Major changes are coming in the near future, including possible hostname and/or URL changes. To be notified of such changes, subscribe to this email list.

Please visit this page for more details.


JPL Small-Body Database Browser
Search: [ help ]  
80101 (1999 NV2)
Classification: Inner Main-belt Asteroid          SPK-ID: 2080101
Ephemeris | Orbit Diagram | Orbital Elements | Mission Design | Physical Parameters | Discovery Circumstances ]

[ show orbit diagram ]
Orbital Elements at Epoch 2458600.5 (2019-Apr-27.0) TDB
Reference: JPL 19 (heliocentric ecliptic J2000)
 Element Value Uncertainty (1-sigma)   Units 
e .05853285794467876 5.2477e-08  
a 1.974182929154133 7.7086e-09 au
q 1.858628360205144 1.0416e-07 au
i 24.80690815548062 4.5666e-06 deg
node 125.5383822178316 1.4103e-05 deg
peri 227.274680562857 4.5165e-05 deg
M 2.16438454596335 4.4432e-05 deg
tp 2458594.408679669613
(2019-Apr-20.90867967)
0.00012504 TDB
period 1013.163452413798
2.77
5.9341e-06
1.625e-08
d
yr
n .3553227262020977 2.0811e-09 deg/d
Q 2.089737498103121 8.1598e-09 au
  Orbit Determination Parameters
   # obs. used (total)      569  
   data-arc span      9218 days (25.24 yr)  
   first obs. used      1994-09-09  
   last obs. used      2019-12-05  
   planetary ephem.      DE431  
   SB-pert. ephem.      SB431-N16  
   condition code      0  
   norm. resid. RMS      .55592  
   source      ORB  
   producer      Otto Matic  
   solution date      2019-Dec-14 07:45:46  

Additional Information
 Earth MOID = .871045 au 
 Jupiter MOID = 3.18402 au 
 T_jup = 3.752 
[ show covariance matrix ]

Ephemeris | Orbit Diagram | Orbital Elements | Mission Design | Physical Parameters | Discovery Circumstances ]

Physical Parameter Table
Parameter Symbol Value Units Sigma Reference Notes
absolute magnitude H 15.9   n/a MPO337860  

80101 (1999 NV2)          Discovered 1999-Jul-13 by LINEAR at Socorro
Reference: 20040504/Numbers.arcLast Updated: 2004-07-16

Alternate Designations
 1999 NV2 = 2001 CZ37 
Ephemeris | Orbit Diagram | Orbital Elements | Mission Design | Physical Parameters | Discovery Circumstances ]
ABOUT SSD CREDITS/AWARDS PRIVACY/COPYRIGHT GLOSSARY LINKS
FirstGov 2020-Jan-22 23:13 UT
(server date/time)  
NASA Home Page
Site Manager:   Ryan S. Park
Webmaster  Alan B. Chamberlin